Location: *
(58.4167°N, 22.5000°E)
Time: 10:58:24
(UTC+00:00)

Cosmos 1943 - Pass Details

Date: 22 September 2019
Orbit: 833 x 851 km, 71.0° (Epoch: 20 October)

Event Time Altitude Azimuth Distance (km) Brightness Sun altitude
Rises 18:29:19 0° 321° (NW) 3,430 7.7 -15.8°
Reaches altitude 10° 18:31:48 10° 324° (NW) 2,490 6.7 -16.1°
Maximum altitude 18:37:31 69° 47° (NE) 913 3.3 -16.7°
Enters shadow 18:40:34 28° 124° (SE) 1,540 4.0 -17.1°
